"read_dt","SO2 (ppb)","flags","PMT voltage (V)","lamp voltage (V)","lamp intensity (Hz)","internal temp (C)","react chamber temp (C)","sample flow (l/min)","pres (mmHg)","SO2 bkg (ppb)","SO2 coefficient"
2016-09-20 00:00:00,1609E-3,5C000000,-0724,0826,12366,028.3,045.5,0.454,743.2,01.18,0.508
2016-09-20 00:01:00,1656E-3,5C000000,-0724,0825,12293,028.3,045.5,0.453,743.2,01.18,0.508
2016-09-20 00:02:00,1641E-3,5C000000,-0724,0826,12219,028.3,045.5,0.454,743.2,01.18,0.508
2016-09-20 00:03:00,1555E-3,5C000000,-0724,0825,12245,028.3,045.5,0.454,743.2,01.18,0.508
2016-09-20 00:04:00,1581E-3,5C000000,-0724,0824,12358,028.3,045.5,0.454,743.2,01.18,0.508
2016-09-20 00:05:00,1701E-3,5C000000,-0724,0826,12149,028.3,045.5,0.454,743.2,01.18,0.508
2016-09-20 00:06:00,1496E-3,5C000000,-0724,0826,12293,028.3,045.5,0.453,743.2,01.18,0.508
2016-09-20 00:07:00,1650E-3,5C000000,-0724,0826,12256,028.3,045.5,0.454,743.2,01.18,0.508
2016-09-20 00:08:00,1614E-3,5C000000,-0724,0825,12180,028.3,045.5,0.453,743.2,01.18,0.508
2016-09-20 00:09:00,1558E-3,5C000000,-0724,0826,12405,028.3,045.5,0.454,743.2,01.18,0.508
2016-09-20 00:10:00,1689E-3,5C000000,-0724,0825,12224,028.3,045.5,0.453,743.2,01.18,0.508
2016-09-20 00:11:00,1717E-3,5C000000,-0724,0825,12176,028.3,045.5,0.454,743.2,01.18,0.508
2016-09-20 00:12:00,1541E-3,5C000000,-0724,0824,12333,028.3,045.5,0.454,743.1,01.18,0.508
2016-09-20 00:13:00,1537E-3,5C000000,-0724,0825,12292,028.3,045.5,0.454,743.1,01.18,0.508
2016-09-20 00:14:00,1498E-3,5C000000,-0724,0826,12237,028.3,045.5,0.454,743.2,01.18,0.508
2016-09-20 00:15:00,1488E-3,5C000000,-0724,0826,12210,028.3,045.5,0.454,743.2,01.18,0.508
2016-09-20 00:16:00,1705E-3,5C000000,-0724,0826,12315,028.3,045.5,0.454,743.1,01.18,0.508
2016-09-20 00:17:00,1613E-3,5C000000,-0724,0826,12351,028.3,045.5,0.453,743.1,01.18,0.508
2016-09-20 00:18:00,1664E-3,5C000000,-0724,0825,12154,028.3,045.5,0.454,743.1,01.18,0.508
2016-09-20 00:19:00,1611E-3,5C000000,-0724,0825,12327,028.3,045.5,0.453,743.1,01.18,0.508
2016-09-20 00:20:00,1693E-3,5C000000,-0724,0825,12245,028.3,045.5,0.454,743.1,01.18,0.508
2016-09-20 00:21:00,1611E-3,5C000000,-0724,0825,12154,028.2,045.4,0.453,743.1,01.18,0.508
2016-09-20 00:22:00,1637E-3,5C000000,-0724,0825,12278,028.2,045.5,0.454,743.1,01.18,0.508
2016-09-20 00:23:00,1554E-3,5C000000,-0724,0825,12221,028.2,045.5,0.454,743.1,01.18,0.508
2016-09-20 00:24:00,1564E-3,5C000000,-0724,0825,12298,028.2,045.5,0.454,743.1,01.18,0.508
2016-09-20 00:25:00,1543E-3,5C000000,-0724,0824,12228,028.2,045.5,0.454,743.1,01.18,0.508
2016-09-20 00:26:00,1549E-3,5C000000,-0724,0826,12238,028.2,045.5,0.454,743.1,01.18,0.508
2016-09-20 00:27:00,1388E-3,5C000000,-0724,0825,12300,028.2,045.5,0.454,743.1,01.18,0.508
2016-09-20 00:28:00,1551E-3,5C000000,-0724,0825,12237,028.2,045.5,0.454,743.1,01.18,0.508
2016-09-20 00:29:00,1628E-3,5C000000,-0724,0825,12271,028.2,045.5,0.454,743.1,01.18,0.508
2016-09-20 00:30:00,1680E-3,5C000000,-0724,0825,12183,028.2,045.5,0.454,743.1,01.18,0.508
2016-09-20 00:31:00,1563E-3,5C000000,-0724,0825,12326,028.2,045.5,0.454,743.1,01.18,0.508
2016-09-20 00:32:00,1708E-3,5C000000,-0724,0825,12156,028.1,045.5,0.454,743.1,01.18,0.508
2016-09-20 00:33:00,1734E-3,5C000000,-0724,0825,12151,028.1,045.5,0.454,743.1,01.18,0.508
2016-09-20 00:34:00,1487E-3,5C000000,-0724,0825,12241,028.2,045.5,0.454,743.1,01.18,0.508
2016-09-20 00:35:00,1738E-3,5C000000,-0724,0825,12346,028.2,045.5,0.454,743.1,01.18,0.508
2016-09-20 00:36:00,1719E-3,5C000000,-0724,0826,12152,028.1,045.5,0.454,743.1,01.18,0.508
2016-09-20 00:37:00,1513E-3,5C000000,-0724,0824,12274,028.1,045.5,0.454,743.1,01.18,0.508
2016-09-20 00:38:00,1551E-3,5C000000,-0724,0825,12291,028.1,045.5,0.454,743.1,01.18,0.508
2016-09-20 00:39:00,1535E-3,5C000000,-0724,0825,12173,028.1,045.5,0.454,743.1,01.18,0.508
2016-09-20 00:40:00,1686E-3,5C000000,-0724,0825,12207,028.1,045.5,0.454,743.1,01.18,0.508
2016-09-20 00:41:00,1671E-3,5C000000,-0724,0826,12329,028.1,045.5,0.454,743.1,01.18,0.508
2016-09-20 00:42:00,1536E-3,5C000000,-0724,0824,12136,028.1,045.5,0.454,743.1,01.18,0.508
2016-09-20 00:43:00,1600E-3,5C000000,-0724,0824,12159,028.1,045.5,0.454,743.1,01.18,0.508
2016-09-20 00:44:00,1737E-3,5C000000,-0724,0825,12178,028.1,045.5,0.454,743.0,01.18,0.508
2016-09-20 00:45:00,1589E-3,5C000000,-0724,0825,12212,028.1,045.5,0.454,743.0,01.18,0.508
2016-09-20 00:46:00,1600E-3,5C000000,-0724,0825,12244,028.1,045.5,0.454,743.0,01.18,0.508
2016-09-20 00:47:00,1671E-3,5C000000,-0724,0825,12187,028.1,045.5,0.454,743.0,01.18,0.508
2016-09-20 00:48:00,1642E-3,5C000000,-0724,0825,12321,028.1,045.5,0.454,743.0,01.18,0.508
2016-09-20 00:49:00,1681E-3,5C000000,-0724,0824,12247,028.1,045.5,0.454,743.0,01.18,0.508
2016-09-20 00:50:00,1547E-3,5C000000,-0724,0825,12189,028.1,045.5,0.454,743.0,01.18,0.508
2016-09-20 00:51:00,1544E-3,5C000000,-0724,0825,12111,028.1,045.5,0.454,743.0,01.18,0.508
2016-09-20 00:52:00,1591E-3,5C000000,-0724,0825,12229,028.1,045.5,0.454,743.0,01.18,0.508
2016-09-20 00:53:00,1626E-3,5C000000,-0724,0826,12093,028.1,045.5,0.454,743.0,01.18,0.508
2016-09-20 00:54:00,1631E-3,5C000000,-0724,0825,12164,028.1,045.5,0.454,743.0,01.18,0.508
2016-09-20 00:55:00,1606E-3,5C000000,-0724,0825,12236,028.1,045.5,0.454,743.0,01.18,0.508
2016-09-20 00:56:00,1578E-3,5C000000,-0724,0825,12241,028.1,045.5,0.454,742.9,01.18,0.508
2016-09-20 00:57:00,1610E-3,5C000000,-0724,0825,12290,028.1,045.5,0.454,742.9,01.18,0.508
2016-09-20 00:58:00,1674E-3,5C000000,-0724,0825,12223,028.1,045.5,0.454,742.9,01.18,0.508
2016-09-20 00:59:00,1718E-3,5C000000,-0724,0824,12156,028.1,045.5,0.454,742.9,01.18,0.508
2016-09-20 01:00:00,1616E-3,5C000000,-0724,0825,12263,028.1,045.5,0.454,742.9,01.18,0.508
2016-09-20 01:01:00,1603E-3,5C000000,-0724,0826,12333,028.1,045.5,0.454,742.9,01.18,0.508
2016-09-20 01:02:00,1649E-3,5C000000,-0724,0825,12274,028.1,045.5,0.454,742.9,01.18,0.508
2016-09-20 01:03:00,1616E-3,5C000000,-0724,0825,12204,028.1,045.5,0.454,742.9,01.18,0.508
2016-09-20 01:04:00,1509E-3,5C000000,-0724,0824,12286,028.1,045.5,0.453,742.9,01.18,0.508
2016-09-20 01:05:00,1624E-3,5C000000,-0724,0826,12256,028.1,045.5,0.454,742.9,01.18,0.508
2016-09-20 01:06:00,1613E-3,5C000000,-0724,0825,12339,028.1,045.5,0.454,742.9,01.18,0.508
2016-09-20 01:07:00,1634E-3,5C000000,-0724,0825,12252,028.1,045.5,0.454,742.9,01.18,0.508
2016-09-20 01:08:00,1564E-3,5C000000,-0724,0824,12277,028.1,045.5,0.454,742.9,01.18,0.508
2016-09-20 01:09:00,1782E-3,5C000000,-0724,0825,12224,028.1,045.5,0.454,742.9,01.18,0.508
2016-09-20 01:10:00,1593E-3,5C000000,-0724,0825,12209,028.1,045.5,0.454,742.9,01.18,0.508
2016-09-20 01:11:00,1664E-3,5C000000,-0724,0824,12183,028.1,045.5,0.454,742.9,01.18,0.508
2016-09-20 01:12:00,1544E-3,5C000000,-0724,0825,12319,028.1,045.5,0.454,742.9,01.18,0.508
2016-09-20 01:13:00,1525E-3,5C000000,-0724,0825,12280,028.1,045.5,0.454,742.9,01.18,0.508
2016-09-20 01:14:00,1536E-3,5C000000,-0724,0825,12175,028.1,045.5,0.454,742.9,01.18,0.508
2016-09-20 01:15:00,1644E-3,5C000000,-0724,0825,12107,028.1,045.5,0.454,742.9,01.18,0.508
2016-09-20 01:16:00,1484E-3,5C000000,-0724,0825,12259,028.1,045.5,0.454,742.9,01.18,0.508
2016-09-20 01:17:00,1568E-3,5C000000,-0724,0825,12208,028.1,045.5,0.454,742.9,01.18,0.508
2016-09-20 01:18:00,1629E-3,5C000000,-0724,0825,12190,028.1,045.5,0.454,742.9,01.18,0.508
2016-09-20 01:19:00,1744E-3,5C000000,-0724,0824,12164,028.1,045.5,0.454,742.9,01.18,0.508
2016-09-20 01:20:00,1737E-3,5C000000,-0724,0825,12283,028.1,045.5,0.454,742.9,01.18,0.508
2016-09-20 01:21:00,1749E-3,5C000000,-0724,0826,12142,028.1,045.5,0.454,742.8,01.18,0.508
2016-09-20 01:22:00,1616E-3,5C000000,-0724,0824,12212,028.1,045.5,0.454,742.8,01.18,0.508
2016-09-20 01:23:00,1704E-3,5C000000,-0724,0825,12262,028.1,045.5,0.454,742.9,01.18,0.508
2016-09-20 01:24:00,1570E-3,5C000000,-0724,0825,12198,028.1,045.5,0.454,742.9,01.18,0.508
2016-09-20 01:25:00,1553E-3,5C000000,-0724,0825,12226,028.1,045.5,0.454,742.9,01.18,0.508
2016-09-20 01:26:00,1482E-3,5C000000,-0724,0825,12208,028.1,045.5,0.454,742.8,01.18,0.508
2016-09-20 01:27:00,1537E-3,5C000000,-0724,0825,12191,028.1,045.5,0.454,742.9,01.18,0.508
2016-09-20 01:28:00,1653E-3,5C000000,-0724,0825,12272,028.1,045.5,0.454,742.9,01.18,0.508
2016-09-20 01:29:00,1555E-3,5C000000,-0724,0826,12222,028.1,045.5,0.454,742.8,01.18,0.508
2016-09-20 01:30:00,1708E-3,5C000000,-0724,0825,12345,028.1,045.5,0.454,742.8,01.18,0.508
2016-09-20 01:31:00,1664E-3,5C000000,-0724,0825,12215,028.1,045.5,0.454,742.8,01.18,0.508
2016-09-20 01:32:00,1650E-3,5C000000,-0724,0825,12293,028.1,045.5,0.454,742.8,01.18,0.508
2016-09-20 01:33:00,1653E-3,5C000000,-0724,0824,12295,028.1,045.5,0.454,742.8,01.18,0.508
2016-09-20 01:34:00,1579E-3,5C000000,-0724,0825,12303,028.1,045.5,0.454,742.8,01.18,0.508
2016-09-20 01:35:00,1532E-3,5C000000,-0724,0825,12270,028.1,045.5,0.454,742.8,01.18,0.508
2016-09-20 01:36:00,1552E-3,5C000000,-0724,0825,12264,028.1,045.5,0.454,742.8,01.18,0.508
2016-09-20 01:37:00,1616E-3,5C000000,-0724,0825,12206,028.1,045.5,0.454,742.7,01.18,0.508
2016-09-20 01:38:00,1607E-3,5C000000,-0724,0826,12226,028.1,045.5,0.454,742.8,01.18,0.508
2016-09-20 01:39:00,1457E-3,5C000000,-0724,0824,12313,028.1,045.5,0.454,742.7,01.18,0.508
2016-09-20 01:40:00,1478E-3,5C000000,-0724,0825,12230,028.1,045.5,0.454,742.8,01.18,0.508
2016-09-20 01:41:00,1738E-3,5C000000,-0724,0825,12172,028.1,045.5,0.454,742.8,01.18,0.508
2016-09-20 01:42:00,1626E-3,5C000000,-0724,0825,12289,028.1,045.5,0.454,742.8,01.18,0.508
2016-09-20 01:43:00,1437E-3,5C000000,-0724,0826,12331,028.1,045.5,0.454,742.8,01.18,0.508
2016-09-20 01:44:00,1674E-3,5C000000,-0724,0825,12310,028.1,045.4,0.454,742.8,01.18,0.508
2016-09-20 01:45:00,1516E-3,5C000000,-0724,0825,12160,028.1,045.5,0.454,742.8,01.18,0.508
2016-09-20 01:46:00,1499E-3,5C000000,-0724,0825,12306,028.1,045.5,0.454,742.7,01.18,0.508
2016-09-20 01:47:00,1682E-3,5C000000,-0724,0825,12201,028.1,045.5,0.454,742.7,01.18,0.508
2016-09-20 01:48:00,1495E-3,5C000000,-0724,0826,12305,028.1,045.5,0.454,742.7,01.18,0.508
2016-09-20 01:49:00,1544E-3,5C000000,-0724,0826,12207,028.1,045.5,0.454,742.7,01.18,0.508
2016-09-20 01:50:00,1648E-3,5C000000,-0724,0826,12176,028.1,045.5,0.454,742.7,01.18,0.508
2016-09-20 01:51:00,1598E-3,5C000000,-0724,0825,12197,028.1,045.5,0.454,742.7,01.18,0.508
2016-09-20 01:52:00,1539E-3,5C000000,-0724,0825,12178,028.1,045.5,0.454,742.7,01.18,0.508
2016-09-20 01:53:00,1565E-3,5C000000,-0724,0826,12402,028.1,045.5,0.454,742.7,01.18,0.508
2016-09-20 01:54:00,1603E-3,5C000000,-0724,0826,12175,028.1,045.5,0.454,742.7,01.18,0.508
2016-09-20 01:55:00,1632E-3,5C000000,-0724,0826,12107,028.1,045.5,0.454,742.7,01.18,0.508
2016-09-20 01:56:00,1615E-3,5C000000,-0724,0825,12328,028.1,045.5,0.454,742.7,01.18,0.508
2016-09-20 01:57:00,1658E-3,5C000000,-0724,0826,12182,028.1,045.5,0.454,742.7,01.18,0.508
2016-09-20 01:58:00,1577E-3,5C000000,-0724,0825,12229,028.1,045.4,0.454,742.7,01.18,0.508
2016-09-20 01:59:00,1565E-3,5C000000,-0724,0825,12245,028.1,045.5,0.454,742.7,01.18,0.508
2016-09-20 02:00:00,1568E-3,5C000000,-0724,0825,12085,028.1,045.5,0.454,742.6,01.18,0.508
2016-09-20 02:01:00,1702E-3,5C000000,-0724,0825,12266,028.1,045.5,0.454,742.7,01.18,0.508
2016-09-20 02:02:00,1583E-3,5C000000,-0724,0826,12141,028.1,045.5,0.454,742.7,01.18,0.508
2016-09-20 02:03:00,1596E-3,5C000000,-0724,0825,12202,028.1,045.5,0.454,742.7,01.18,0.508
2016-09-20 02:04:00,1515E-3,5C000000,-0724,0826,12218,028.1,045.5,0.454,742.6,01.18,0.508
2016-09-20 02:05:00,1549E-3,5C000000,-0724,0824,12169,028.1,045.5,0.454,742.6,01.18,0.508
2016-09-20 02:06:00,1664E-3,5C000000,-0724,0825,12246,028.1,045.5,0.454,742.6,01.18,0.508
2016-09-20 02:07:00,1592E-3,5C000000,-0724,0825,12236,028.1,045.5,0.454,742.6,01.18,0.508
2016-09-20 02:08:00,1788E-3,5C000000,-0724,0826,12161,028.1,045.5,0.453,742.7,01.18,0.508
2016-09-20 02:09:00,1542E-3,5C000000,-0724,0826,12258,028.1,045.5,0.454,742.7,01.18,0.508
2016-09-20 02:10:00,1596E-3,5C000000,-0724,0825,12024,028.1,045.5,0.454,742.7,01.18,0.508
2016-09-20 02:11:00,1677E-3,5C000000,-0724,0825,12209,028.1,045.5,0.454,742.7,01.18,0.508
2016-09-20 02:12:00,1497E-3,5C000000,-0724,0825,12243,028.1,045.5,0.454,742.7,01.18,0.508
2016-09-20 02:13:00,1646E-3,5C000000,-0724,0826,12402,028.1,045.5,0.454,742.7,01.18,0.508
2016-09-20 02:14:00,1538E-3,5C000000,-0724,0826,12327,028.1,045.5,0.454,742.7,01.18,0.508
2016-09-20 02:15:00,1629E-3,5C000000,-0724,0826,12273,028.1,045.5,0.454,742.7,01.18,0.508
2016-09-20 02:16:00,1689E-3,5C000000,-0724,0825,12126,028.1,045.5,0.454,742.7,01.18,0.508
2016-09-20 02:17:00,1643E-3,5C000000,-0724,0825,12234,028.1,045.5,0.454,742.7,01.18,0.508
2016-09-20 02:18:00,1581E-3,5C000000,-0724,0826,12177,028.1,045.5,0.454,742.7,01.18,0.508
2016-09-20 02:19:00,1760E-3,5C000000,-0724,0826,12257,028.1,045.5,0.454,742.7,01.18,0.508
2016-09-20 02:20:00,1545E-3,5C000000,-0724,0825,12276,028.1,045.5,0.454,742.7,01.18,0.508
2016-09-20 02:21:00,1553E-3,5C000000,-0724,0824,12182,028.1,045.5,0.454,742.7,01.18,0.508
2016-09-20 02:22:00,1576E-3,5C000000,-0724,0826,12239,028.1,045.5,0.454,742.7,01.18,0.508
2016-09-20 02:23:00,1684E-3,5C000000,-0724,0826,12362,028.1,045.5,0.454,742.6,01.18,0.508
2016-09-20 02:24:00,1583E-3,5C000000,-0724,0825,12187,028.1,045.5,0.454,742.6,01.18,0.508
2016-09-20 02:25:00,1617E-3,5C000000,-0724,0826,12210,028.1,045.5,0.454,742.6,01.18,0.508
2016-09-20 02:26:00,1670E-3,5C000000,-0724,0826,12333,028.1,045.5,0.454,742.6,01.18,0.508
2016-09-20 02:27:00,1768E-3,5C000000,-0724,0825,12264,028.1,045.5,0.454,742.6,01.18,0.508
2016-09-20 02:28:00,1538E-3,5C000000,-0724,0825,12381,028.1,045.5,0.454,742.6,01.18,0.508
2016-09-20 02:29:00,1607E-3,5C000000,-0724,0826,12205,028.1,045.5,0.453,742.6,01.18,0.508
2016-09-20 02:30:00,1733E-3,5C000000,-0724,0825,12321,028.1,045.5,0.454,742.6,01.18,0.508
2016-09-20 02:31:00,1603E-3,5C000000,-0724,0827,12325,028.1,045.5,0.454,742.6,01.18,0.508
2016-09-20 02:32:00,1697E-3,5C000000,-0724,0826,12252,028.1,045.5,0.454,742.6,01.18,0.508
2016-09-20 02:33:00,1561E-3,5C000000,-0724,0826,12119,028.1,045.5,0.454,742.6,01.18,0.508
2016-09-20 02:34:00,1648E-3,5C000000,-0724,0826,12154,028.1,045.5,0.454,742.6,01.18,0.508
2016-09-20 02:35:00,1652E-3,5C000000,-0724,0825,12338,028.1,045.5,0.454,742.6,01.18,0.508
2016-09-20 02:36:00,1551E-3,5C000000,-0724,0826,12264,028.1,045.5,0.454,742.6,01.18,0.508
2016-09-20 02:37:00,1531E-3,5C000000,-0724,0825,12353,028.1,045.5,0.454,742.6,01.18,0.508
2016-09-20 02:38:00,1482E-3,5C000000,-0724,0825,12214,028.1,045.5,0.454,742.6,01.18,0.508
2016-09-20 02:39:00,1601E-3,5C000000,-0724,0826,12146,028.1,045.5,0.454,742.6,01.18,0.508
2016-09-20 02:40:00,1641E-3,5C000000,-0724,0825,12332,028.1,045.5,0.454,742.6,01.18,0.508
2016-09-20 02:41:00,1624E-3,5C000000,-0724,0825,12157,028.1,045.5,0.454,742.6,01.18,0.508
2016-09-20 02:42:00,1686E-3,5C000000,-0724,0826,12172,028.1,045.5,0.454,742.6,01.18,0.508
2016-09-20 02:43:00,1447E-3,5C000000,-0724,0825,12343,028.1,045.5,0.454,742.6,01.18,0.508
2016-09-20 02:44:00,1740E-3,5C000000,-0724,0825,12218,028.1,045.5,0.454,742.6,01.18,0.508
2016-09-20 02:45:00,1695E-3,5C000000,-0724,0825,12128,028.1,045.4,0.454,742.6,01.18,0.508
2016-09-20 02:46:00,1618E-3,5C000000,-0724,0825,12320,028.1,045.5,0.454,742.6,01.18,0.508
2016-09-20 02:47:00,1710E-3,5C000000,-0724,0826,12142,028.1,045.5,0.454,742.6,01.18,0.508
2016-09-20 02:48:00,1716E-3,5C000000,-0724,0825,12300,028.1,045.5,0.454,742.6,01.18,0.508
2016-09-20 02:49:00,1566E-3,5C000000,-0724,0825,12231,028.1,045.5,0.454,742.6,01.18,0.508
2016-09-20 02:50:00,1552E-3,5C000000,-0724,0825,12192,028.1,045.4,0.454,742.6,01.18,0.508
2016-09-20 02:51:00,1587E-3,5C000000,-0724,0825,12169,028.1,045.5,0.454,742.6,01.18,0.508
2016-09-20 02:52:00,1698E-3,5C000000,-0724,0825,12133,028.1,045.5,0.454,742.6,01.18,0.508
2016-09-20 02:53:00,1528E-3,5C000000,-0724,0825,12216,028.1,045.5,0.454,742.6,01.18,0.508
2016-09-20 02:54:00,1665E-3,5C000000,-0724,0826,12310,028.1,045.5,0.454,742.6,01.18,0.508
2016-09-20 02:55:00,1572E-3,5C000000,-0724,0826,12339,028.1,045.5,0.454,742.5,01.18,0.508
2016-09-20 02:56:00,1693E-3,5C000000,-0724,0825,12330,028.1,045.5,0.454,742.5,01.18,0.508
2016-09-20 02:57:00,1617E-3,5C000000,-0724,0825,12114,028.1,045.5,0.453,742.6,01.18,0.508
2016-09-20 02:58:00,1589E-3,5C000000,-0724,0825,12263,028.1,045.5,0.454,742.5,01.18,0.508
2016-09-20 02:59:00,1633E-3,5C000000,-0724,0824,12134,028.1,045.5,0.454,742.5,01.18,0.508
2016-09-20 03:00:00,1544E-3,5C000000,-0724,0825,12351,028.1,045.5,0.453,742.5,01.18,0.508
2016-09-20 03:01:00,1671E-3,5C000000,-0724,0824,12226,028.1,045.5,0.454,742.6,01.18,0.508
2016-09-20 03:02:00,1545E-3,5C000000,-0724,0826,12147,028.1,045.5,0.454,742.5,01.18,0.508
2016-09-20 03:03:00,1532E-3,5C000000,-0724,0825,12285,028.1,045.5,0.453,742.5,01.18,0.508
2016-09-20 03:04:00,1606E-3,5C000000,-0724,0824,12266,028.1,045.5,0.454,742.5,01.18,0.508
2016-09-20 03:05:00,1666E-3,5C000000,-0724,0825,12236,028.1,045.5,0.454,742.5,01.18,0.508
2016-09-20 03:06:00,1537E-3,5C000000,-0724,0826,12182,028.1,045.5,0.453,742.5,01.18,0.508
2016-09-20 03:07:00,1598E-3,5C000000,-0724,0826,12169,028.1,045.5,0.454,742.5,01.18,0.508
2016-09-20 03:08:00,1518E-3,5C000000,-0724,0825,12191,028.1,045.5,0.454,742.5,01.18,0.508
2016-09-20 03:09:00,1534E-3,5C000000,-0724,0827,12309,028.1,045.5,0.453,742.5,01.18,0.508
2016-09-20 03:10:00,1596E-3,5C000000,-0724,0825,12308,028.1,045.5,0.454,742.5,01.18,0.508
2016-09-20 03:11:00,1612E-3,5C000000,-0724,0825,12202,028.1,045.5,0.454,742.5,01.18,0.508
2016-09-20 03:12:00,1643E-3,5C000000,-0724,0825,12170,028.1,045.5,0.453,742.5,01.18,0.508
2016-09-20 03:13:00,1518E-3,5C000000,-0724,0825,12211,028.1,045.4,0.454,742.5,01.18,0.508
2016-09-20 03:14:00,1691E-3,5C000000,-0724,0826,12183,028.1,045.5,0.454,742.5,01.18,0.508
2016-09-20 03:15:00,1732E-3,5C000000,-0724,0825,12187,028.1,045.5,0.453,742.4,01.18,0.508
2016-09-20 03:16:00,1543E-3,5C000000,-0724,0824,12243,028.1,045.5,0.454,742.4,01.18,0.508
2016-09-20 03:17:00,1506E-3,5C000000,-0724,0825,12159,028.1,045.5,0.454,742.4,01.18,0.508
2016-09-20 03:18:00,1678E-3,5C000000,-0724,0825,12236,028.1,045.5,0.453,742.4,01.18,0.508
2016-09-20 03:19:00,1568E-3,5C000000,-0724,0826,12247,028.1,045.5,0.454,742.4,01.18,0.508
2016-09-20 03:20:00,1683E-3,5C000000,-0724,0825,12217,028.1,045.5,0.454,742.4,01.18,0.508
2016-09-20 03:21:00,1583E-3,5C000000,-0724,0826,12392,028.1,045.5,0.453,742.4,01.18,0.508
2016-09-20 03:22:00,1531E-3,5C000000,-0724,0826,12336,028.1,045.5,0.454,742.4,01.18,0.508
2016-09-20 03:23:00,1578E-3,5C000000,-0724,0825,12293,028.1,045.5,0.454,742.4,01.18,0.508
2016-09-20 03:24:00,1623E-3,5C000000,-0724,0826,12354,028.1,045.5,0.453,742.3,01.18,0.508
2016-09-20 03:25:00,1589E-3,5C000000,-0724,0826,12213,028.1,045.5,0.454,742.4,01.18,0.508
2016-09-20 03:26:00,1469E-3,5C000000,-0724,0825,12314,028.1,045.5,0.454,742.4,01.18,0.508
2016-09-20 03:27:00,1546E-3,5C000000,-0724,0826,12246,028.1,045.5,0.453,742.4,01.18,0.508
2016-09-20 03:28:00,1577E-3,5C000000,-0724,0825,12246,028.1,045.5,0.454,742.4,01.18,0.508
2016-09-20 03:29:00,1701E-3,5C000000,-0724,0825,12243,028.1,045.5,0.454,742.4,01.18,0.508
2016-09-20 03:30:00,1609E-3,5C000000,-0724,0825,12254,028.1,045.5,0.453,742.4,01.18,0.508
2016-09-20 03:31:00,1610E-3,5C000000,-0724,0825,12128,028.1,045.5,0.454,742.4,01.18,0.508
2016-09-20 03:32:00,1668E-3,5C000000,-0724,0825,12274,028.1,045.5,0.454,742.4,01.18,0.508
2016-09-20 03:33:00,1670E-3,5C000000,-0724,0825,12343,028.1,045.5,0.453,742.4,01.18,0.508
2016-09-20 03:34:00,1597E-3,5C000000,-0724,0825,12152,028.1,045.5,0.454,742.4,01.18,0.508
2016-09-20 03:35:00,1592E-3,5C000000,-0724,0825,12145,028.1,045.5,0.454,742.4,01.18,0.508
2016-09-20 03:36:00,1752E-3,5C000000,-0724,0826,12258,028.1,045.5,0.454,742.4,01.18,0.508
2016-09-20 03:37:00,1606E-3,5C000000,-0724,0825,12159,028.1,045.5,0.454,742.3,01.18,0.508
2016-09-20 03:38:00,1659E-3,5C000000,-0724,0825,12324,028.1,045.5,0.454,742.3,01.18,0.508
2016-09-20 03:39:00,1729E-3,5C000000,-0724,0825,12270,028.1,045.5,0.454,742.3,01.18,0.508
2016-09-20 03:40:00,1613E-3,5C000000,-0724,0825,12255,028.1,045.5,0.454,742.3,01.18,0.508
2016-09-20 03:41:00,1623E-3,5C000000,-0724,0825,12226,028.1,045.5,0.454,742.3,01.18,0.508
2016-09-20 03:42:00,1571E-3,5C000000,-0724,0826,12306,028.1,045.5,0.454,742.3,01.18,0.508
2016-09-20 03:43:00,1690E-3,5C000000,-0724,0825,12180,028.1,045.5,0.454,742.3,01.18,0.508
2016-09-20 03:44:00,1615E-3,5C000000,-0724,0825,12254,028.1,045.5,0.454,742.3,01.18,0.508
2016-09-20 03:45:00,1606E-3,5C000000,-0724,0825,12261,028.1,045.5,0.454,742.3,01.18,0.508
2016-09-20 03:46:00,1562E-3,5C000000,-0724,0825,12260,028.1,045.5,0.453,742.3,01.18,0.508
2016-09-20 03:47:00,1701E-3,5C000000,-0724,0825,12300,028.1,045.5,0.454,742.3,01.18,0.508
2016-09-20 03:48:00,1620E-3,5C000000,-0724,0826,12204,028.1,045.5,0.454,742.3,01.18,0.508
2016-09-20 03:49:00,1619E-3,5C000000,-0724,0824,12185,028.1,045.5,0.453,742.3,01.18,0.508
2016-09-20 03:50:00,1744E-3,5C000000,-0724,0825,12214,028.1,045.5,0.454,742.3,01.18,0.508
2016-09-20 03:51:00,1763E-3,5C000000,-0724,0826,12163,028.1,045.5,0.454,742.3,01.18,0.508
2016-09-20 03:52:00,1674E-3,5C000000,-0724,0826,12213,028.1,045.5,0.453,742.3,01.18,0.508
2016-09-20 03:53:00,1411E-3,5C000000,-0724,0825,12143,028.1,045.5,0.454,742.3,01.18,0.508
2016-09-20 03:54:00,1589E-3,5C000000,-0724,0825,12192,028.1,045.5,0.454,742.3,01.18,0.508
2016-09-20 03:55:00,1701E-3,5C000000,-0724,0824,12170,028.1,045.5,0.454,742.3,01.18,0.508
2016-09-20 03:56:00,1637E-3,5C000000,-0724,0825,12251,028.1,045.5,0.453,742.2,01.18,0.508
2016-09-20 03:57:00,1651E-3,5C000000,-0724,0826,12230,028.1,045.5,0.454,742.2,01.18,0.508
2016-09-20 03:58:00,1597E-3,5C000000,-0724,0825,12217,028.1,045.5,0.454,742.2,01.18,0.508
2016-09-20 03:59:00,1579E-3,5C000000,-0724,0824,12195,028.1,045.5,0.454,742.2,01.18,0.508
2016-09-20 04:00:00,1762E-3,5C000000,-0724,0825,12220,028.1,045.5,0.454,742.2,01.18,0.508
2016-09-20 04:01:00,1604E-3,5C000000,-0724,0825,12227,028.1,045.5,0.454,742.2,01.18,0.508
2016-09-20 04:02:00,1543E-3,5C000000,-0724,0825,12185,028.1,045.5,0.453,742.2,01.18,0.508
2016-09-20 04:03:00,1433E-3,5C000000,-0724,0826,12339,028.1,045.5,0.454,742.2,01.18,0.508
2016-09-20 04:04:00,1532E-3,5C000000,-0724,0826,12179,028.1,045.5,0.454,742.2,01.18,0.508
2016-09-20 04:05:00,1600E-3,5C000000,-0724,0825,12206,028.1,045.5,0.453,742.2,01.18,0.508
2016-09-20 04:06:00,1640E-3,5C000000,-0724,0825,12127,028.1,045.5,0.454,742.2,01.18,0.508
2016-09-20 04:07:00,1431E-3,5C000000,-0724,0825,12175,028.1,045.5,0.454,742.2,01.18,0.508
2016-09-20 04:08:00,1573E-3,5C000000,-0724,0825,12172,028.1,045.5,0.453,742.2,01.18,0.508
2016-09-20 04:09:00,1538E-3,5C000000,-0724,0825,12177,028.1,045.5,0.454,742.2,01.18,0.508
2016-09-20 04:10:00,1515E-3,5C000000,-0724,0824,12041,028.1,045.5,0.454,742.2,01.18,0.508
2016-09-20 04:11:00,1585E-3,5C000000,-0724,0826,12262,028.1,045.5,0.453,742.2,01.18,0.508
2016-09-20 04:12:00,1636E-3,5C000000,-0724,0826,12326,028.1,045.5,0.454,742.2,01.18,0.508
2016-09-20 04:13:00,1687E-3,5C000000,-0724,0826,12237,028.1,045.5,0.454,742.2,01.18,0.508
2016-09-20 04:14:00,1605E-3,5C000000,-0724,0825,12262,028.1,045.5,0.453,742.2,01.18,0.508
2016-09-20 04:15:00,1583E-3,5C000000,-0724,0826,12162,028.1,045.5,0.454,742.2,01.18,0.508
2016-09-20 04:16:00,1512E-3,5C000000,-0724,0826,12223,028.1,045.5,0.454,742.2,01.18,0.508
2016-09-20 04:17:00,1422E-3,5C000000,-0724,0825,12197,028.1,045.5,0.453,742.1,01.18,0.508
2016-09-20 04:18:00,1570E-3,5C000000,-0724,0825,12200,028.1,045.5,0.453,742.1,01.18,0.508
2016-09-20 04:19:00,1532E-3,5C000000,-0724,0826,12286,028.1,045.5,0.454,742.1,01.18,0.508
2016-09-20 04:20:00,1618E-3,5C000000,-0724,0825,12261,028.1,045.5,0.454,742.1,01.18,0.508